Regional Weather Roundup
Issued by NWS Grand Forks, ND

Home | Current Version | Previous Version | Graphics & Text | Print | Product List | Glossary On
Versions: 1 2 3 4 5 6 7 8 9 10 11 12 13 14 15 16 17 18 19 20 21 22 23 24 25 26 27 28 29 30 31 32 33 34 35 36 37 38 39 40 41 42 43 44 45 46 47 48 49 50
000
ASUS43 KFGF 170531
RWRFGF
PRAIRIE TO PINES  WEATHER ROUNDUP
NATIONAL WEATHER SERVICE EASTERN NORTH DAKOTA/GRAND FORKS ND
1200 AM CDT THU APR 17 2014

 **SATELLITE DATA USED TO AUGMENT SKY COVER AT AUTOMATED STATIONS**
 *****  WEATHER ACROSS EASTERN NORTH DAKOTA  *****

CITY           SKY/WX    TMP DP  RH WIND       PRES   REMARKS
GRAND FORKS    CLEAR     26  19  74 N8        30.26R WCI  18
GRAND FRKS AFB CLEAR     25  19  76 N13       30.30S WCI  14
GRAND FRKS NWS   N/A     28 N/A N/A VRB13       N/A  WCI  18
DEVILS LAKE    CLEAR     25  10  54 NE12      30.31R WCI  14
FARGO          CLEAR     30  18  60 N12       30.23R WCI  20
WAHPETON ARPT  CLEAR     27  19  74 N5        30.22S WCI  21
$$

 ***** WEATHER ACROSS CENTRAL AND WESTERN NORTH DAKOTA  *****

CITY           SKY/WX    TMP DP  RH WIND       PRES   REMARKS
BISMARCK       CLOUDY    29  15  56 E8        30.26S WCI  21
MINOT          CLOUDY    24  13  62 E6        30.29R WCI  17
JAMESTOWN      CLEAR     26  19  74 N10       30.25R WCI  16
MINOT AFB      PTCLDY    23  15  70 E7        30.30R WCI  15
GARRISON         N/A     28  17  63 E15       30.26S WCI  16
WILLISTON        N/A    N/A N/A N/A MISG      30.27S
DICKINSON      CLOUDY    27  20  75 E5        30.19S WCI  22
HETTINGER      CLOUDY    26  20  77 E6        30.20S WCI  19
$$

 *****  OTHER AIRPORT OBSERVATIONS IN OUR AREA  *****

CITY           SKY/WX    TMP DP  RH WIND       PRES   REMARKS
WALHALLA       FAIR      23  18  80 NW6       30.36S WCI  16
GRAFTON AIRPOR FAIR      25  16  68 N12       30.33R WCI  14
VALLEY CITY AR NOT AVBL
CANDO          FAIR      19  14  79 N8        30.33S WCI   9
CAVALIER APRT  FAIR      25  16  68 N7        30.35S WCI  17
GWINNER        CLEAR     27  21  80 N8        30.24R WCI  18
SHEYENNE NWR     N/A     29  20  69 N7        29.95S WCI  22
ROLLA          FAIR      19  12  73 NE9       30.33R WCI   9
 ***** THE ABOVE OBSERVATIONS ARE NON NWS ARE NOT QUALITY
       CONTROLLED AND MAY MIS-REPORT RAIN FOR SNOW...
$$

  *****  WEATHER ACROSS NORTHERN MINNESOTA  *****

CITY           SKY/WX    TMP DP  RH WIND       PRES   REMARKS
FLAG ISLAND    CLEAR     25   7  46 N5        30.31R WCI  19
WARROAD        CLEAR     27   9  46 N7        30.30S WCI  19
ROSEAU         CLEAR     25  16  68 N6        30.30R WCI  18
HALLOCK        CLOUDY    27  14  59 N10       30.32S WCI  17
THF RVR FALLS  CLEAR     28  10  47 N10       30.27S WCI  19
BAUDETTE       PTCLDY    28   7  41 N8        30.27S WCI  20
WASKISH        CLEAR     25  10  54 CALM      30.25R
CROOKSTON      CLEAR     28  16  59 NE7       30.28S WCI  21
$$
  *****  WEATHER ACROSS CENTRAL AND WEST MINNESOTA  *****

CITY           SKY/WX    TMP DP  RH WIND       PRES   REMARKS
FOSSTON        CLEAR     25  12  58 N8        30.24R WCI  16
BEMIDJI        CLEAR     24  12  62 NE3       30.21S
PARK RAPIDS    CLEAR     25  19  78 NE6       30.18S WCI  18
ELBOW LAKE     FAIR      26  21  81 N12       30.17R WCI  16
WADENA         CLEAR     23  18  80 N8        30.16S WCI  14
DETROIT LAKES  CLEAR     27  21  80 CALM      30.21R
MOORHEAD       CLEAR     30  25  80 N9        30.23S WCI  22
FERGUS FALLS   CLEAR     28  18  64 NE6       30.17S WCI  22
MORRIS MN      CLEAR     25  19  80 N10       30.15R WCI  15
STAPLES        CLEAR     23  19  86 N9        30.16R WCI  13
$$
  *****  WEATHER ELSEWHERE ACROSS MINNESOTA  *****

CITY           SKY/WX    TMP DP  RH WIND       PRES   REMARKS
DULUTH         LGT SNOW  27  22  81 NE20G30   30.12S VSB 3/4 WCI  13
INTRNTL FALLS  CLEAR     26   8  46 NE5       30.26R WCI  20
ELY            LGT SNOW  23  19  86 NE7       30.21S WCI  15
CLOQUET        LGT SNOW  27  25  93 NE13G24   30.11F WCI  16
WHEATON        CLEAR     27  23  86 N5        30.22R WCI  21
BRAINERD       CLOUDY    30  20  66 NE13      30.14S WCI  20
HIBBING        LGT SNOW  26  20  77 NE9       30.18S WCI  17
ALEXANDRIA     CLEAR     25  19  78 N13       30.13S WCI  14
SAINT CLOUD    CLOUDY    29  23  78 N14G22    30.06R WCI  18
MINNEAPOLIS    LGT SNOW  28  28 100 N16G25    29.96R FOG     WCI  16
$$

  *****  WEATHER ACROSS SOUTH DAKOTA  *****

CITY           SKY/WX    TMP DP  RH WIND       PRES   REMARKS
SIOUX FALLS    CLOUDY    28  24  85 N16       30.13R WCI  16
BROOKINGS      NOT AVBL
WATERTOWN      CLEAR     20  17  88 N8        30.15R WCI  10
HURON          CLEAR     25  21  85 N6        30.21R WCI  18
SISSETON         N/A     21  18  88 N9        30.19S WCI  11
ABERDEEN       CLEAR     20  17  88 NW8       30.23R WCI  10
MITCHELL       CLOUDY    32  23  69 N14       30.20R WCI  22
PIERRE         PTCLDY    24  18  77 N5        30.23R WCI  18
MOBRIDGE       CLOUDY    29  18  63 NE12      30.21R WCI  19
RAPID CITY     CLOUDY    31  24  75 S7        30.17F WCI  24
$$

  *****  SOME WEATHER IN NEARBY STATES *****

CITY           SKY/WX    TMP DP  RH WIND       PRES   REMARKS
GLASGOW MT     PTCLDY    27  19  72 E16       30.17F WCI  15
GREAT FALLS MT CLEAR     34  31  88 SE8       29.95F
CHEYENNE WY    CLOUDY    34  29  82 CALM      30.07F
SCOTTSBLUFF NE CLOUDY    35  30  82 E9        30.14S
OMAHA NE       CLOUDY    36  28  73 NW22G28   30.10R
DES MOINES IA  CLOUDY    41  35  79 W24G31    30.00R
DAVENPORT IA   MOCLDY    47  28  47 S24G36    30.01S
CHICAGO IL     CLOUDY    44  23  43 S15       30.16S
EAU CLAIRE WI  LGT RAIN  39  35  86 E12       29.95R
LA CROSSE WI   CLOUDY    50  28  42 SE22      29.88F
$$

  *****  SOME NATIONAL WEATHER *****

CITY           SKY/WX    TMP DP  RH WIND       PRES   REMARKS
LA GUARDIA NY  CLEAR     39  19  44 NE9       30.59R
RALEIGH NC     CLEAR     41  26  55 E8        30.48R
ATLANTA GA     MOCLDY    49  29  46 E12       30.32R
NEW ORLEANS LA CLEAR     53  45  74 CALM      30.16F
OKLAHOMA CITY  PTCLDY    55  35  47 SE14      30.01R
ALBUQUERQUE NM MOCLDY    60  23  24 N8        29.95R
SALT LAKE CITY PTCLDY    46  15  28 SE6       30.02S
LOS ANGELES CA PTCLDY    59  53  80 SW3       29.86R
BOISE ID       CLEAR     48  22  35 SE3       29.98S
SEATTLE WA     CLOUDY    51  49  92 S8        29.98S
$$

*** WEATHER ACROSS MANITOBA...SASKATCHEWAN AND ONTARIO ***
                ***ONTARIO***

CITY           SKY/WX    TMP DP  RH WIND       PRES   REMARKS
GERALDTON      PTCLDY    10   5  79 CALM      30.38
THUNDER BAY    FLURRIES  27  23  86 NE12      30.34S WCI  16
SIOUX LOOKOUT  CLEAR     21   0  39 NE5       30.33R WCI  15
TORONTO        PTCLDY    32  25  74 SE9       30.54R WCI  24
BIG TROUT LK   NOT AVBL
PICKLE LAKE    NOT AVBL
DRYDEN         MOCLDY    19   1  45 NE6       30.31R WCI  11
KENORA         CLEAR     23   0  36 NE7       30.31S WCI  15
$$
                *** MANITOBA***

CITY           SKY/WX    TMP DP  RH WIND       PRES   REMARKS
BRANDON        CLEAR     19  12  73 NE7       30.38S WCI  10
DAUPHIN        CLEAR     19  16  86 SE6       30.41S WCI  11
ISLAND LAKE    CLEAR      9   5  85 CALM      30.41S
PILOT MOUND      N/A     18  10  73 N6          N/A  WCI   9
THE PAS        CLEAR     14   3  62 S2        30.42S
THOMPSON       CLEAR      5   0  78 CALM      30.39S
WINNIPEG       CLEAR     19   9  63 NE10      30.39R WCI   8
LYNN LAKE      CLEAR      9  -8  47 SW7       30.35F WCI  -3
CHURCHILL      PTCLDY    14   3  62 W16       30.21F WCI  -2
GILLAM         CLEAR     16   5  62 W8        30.35S WCI   5
$$
                ***SASKATCHEWAN***

CITY           SKY/WX    TMP DP  RH WIND       PRES   REMARKS
ESTEVAN        PTCLDY    21  16  79 E9        30.30  WCI  11
KINDERSLEY     MOCLDY    25  21  86 SE16      30.12F WCI  12
LLOYDMINSTER   CLOUDY    25  19  80 SE14G20   30.14F WCI  13
PRINCE ALBERT  CLEAR     18   7  62 E5        30.32F WCI  11
REGINA         CLEAR     23  19  86 SE8       30.28  WCI  14
YORKTON        CLEAR     19  10  68 SE7       30.34F WCI  10
N. BATTLEFORD  PTCLDY    23  21  93 SE10      30.23F WCI  12
LA RONGE       CLEAR     14   1  57 NE5       30.33F WCI   6
SASKATOON      PTCLDY    23  16  74 SE9       30.27F WCI  13
SWIFT CURRENT  MOCLDY    25  21  86 MISG      30.10F
$$
NOTE: THESE ARE AUTOMATED STATIONS WITH LIMITED QUALITY CONTROL
      "FAIR" INDICATES FEW OR NO CLOUDS BELOW 12,000 FEET WITH NO
      SIGNIFICANT WEATHER AND/OR OBSTRUCTIONS TO VISIBILITY.
      SKY/WX - SKY CONDITION AND SIGNIFICANT WEATHER.
      TMP - AIR TEMPERATURE.    DP   - DEWPOINT TEMPERATURE.
      RH  - RELATIVE HUMIDITY.  PRES - PRESSURE.
      HX  - HEAT INDEX.         WCI  - WIND CHILL INDEX.
$



USA.gov is the U.S. government's official web portal to all federal, state and local government web resources and services.